Location: Oberkirch
(48.5323°N, 8.0787°E)
Time: 18:28:51
(UTC+00:00)

Helios 1A Rocket - Pass Details

Date: 08 November 2025
Orbit: 439 x 451 km, 98.3° (Epoch: 10 December)

Event Time Altitude Azimuth Distance (km) Brightness Sun altitude
Rises 03:51:05 0° 138° (SE) 2,449 6.7 -25.6°
Reaches altitude 10° 03:53:18 10° 126° (SE) 1,577 5.8 -25.2°
Maximum altitude 03:56:11 27° 67° (ENE) 905 4.5 -24.8°
Enters shadow 03:58:22 14° 16° (NNE) 1,332 4.9 -24.4°
